Wind_Speed
3 2 7 3 5 10 15 13 8 11 7 3 5 8 10 12 8 3 10 22 24 28 28 27 27 27 28 29 29 30 31 31 29 28 27 28 27 25 27 28 26 26 26 28 29 28 26 25 26
3 4 2 2 15 21 7 8 9 10 8 9 10 9 6 5 3 6 11 14 22 26 27 28 23 25 26 27 29 30 29 29 28 28 29 29 28 29 27 27 28 26 26 28 31 30 29 28 27
4 2 4 11 20 25 15 6 10 10 12 8 9 10 9 7 12 11 18 20 24 21 26 26 28 24 27 28 28 27 29 29 29 29 29 29 27 27 27 26 25 27 26 26 28 31 31 29 29
3 3 7 8 16 10 12 10 11 11 9 8 6 7 12 16 18 24 23 22 21 19 17 29 31 30 30 28 27 28 29 28 30 30 28 27 28 28 28 30 28 26 27 25 26 28 30 30 30
4 6 14 22 20 18 15 13 10 9 10 10 4 8 16 15 18 25 28 19 20 20 24 28 26 28 26 26 28 30 28 29 29 28 27 28 29 30 31 29 28 28 28 25 24 26 29 28 28
6 7 15 21 20 10 11 11 10 9 11 9 14 9 12 16 22 27 29 24 18 20 21 26 25 24 24 26 29 29 29 30 29 29 29 30 31 31 31 32 31 30 29 28 25 24 28 28 28
12 13 22 24 24 23 19 9 9 13 12 11 7 6 14 18 20 24 28 21 16 19 23 26 25 26 27 27 27 26 29 31 29 29 30 30 30 29 30 29 28 29 27 28 28 24 26 27 28
14 15 24 23 25 23 15 12 11 13 12 12 17 13 8 14 26 28 23 18 18 23 29 32 30 29 33 36 34 29 28 29 28 29 27 26 26 27 28 28 25 27 26 28 27 26 25 26 27
17 22 27 24 24 21 18 17 14 17 18 17 15 11 17 20 21 21 14 17 16 17 26 33 34 31 30 32 35 31 28 27 27 26 25 23 23 22 20 20 20 24 28 27 28 25 23 25 25
23 27 30 24 23 22 21 20 20 21 20 13 17 18 20 21 22 15 16 14 13 16 27 31 33 30 32 32 29 28 30 28 25 23 22 21 21 19 17 19 19 19 24 28 27 26 23 22 25
25 32 29 26 24 24 23 22 19 20 18 16 10 7 19 19 19 14 11 11 19 27 27 32 34 31 31 28 26 28 29 21 20 21 21 21 19 18 16 16 14 16 22 25 28 25 25 21 24
31 31 31 31 27 26 24 23 22 19 18 17 15 15 18 23 19 16 16 17 26 27 30 32 35 33 31 26 25 26 27 21 19 18 19 18 17 16 13 12 14 18 19 23 24 24 23 21 24
31 31 31 28 26 26 25 25 23 21 17 15 14 17 19 19 23 20 21 24 25 26 28 30 32 32 29 24 22 24 19 17 17 20 20 18 15 14 13 14 16 15 19 23 23 21 21 23 27
31 29 29 28 28 26 27 25 23 23 18 15 17 20 16 18 23 28 27 23 23 25 27 29 30 31 26 20 24 19 15 16 17 21 19 25 20 11 11 12 13 15 17 21 26 21 18 22 26
30 33 31 29 27 29 25 28 26 21 21 21 19 18 20 23 25 23 26 21 22 25 26 28 29 29 23 19 21 18 18 16 16 16 18 17 14 10 10 10 11 14 17 20 25 25 19 19 21
31 31 35 30 29 30 28 31 22 20 22 23 22 21 21 21 18 24 29 23 20 23 25 27 27 26 22 18 18 18 16 15 15 14 18 17 11 10 8 9 7 8 14 18 25 28 17 15 25
32 33 33 28 25 27 29 28 22 20 20 21 20 21 24 22 25 31 27 20 21 21 22 26 25 22 20 19 19 16 17 14 12 16 17 14 8 9 8 6 4 5 10 14 21 26 17 18 24
31 30 31 29 24 24 23 24 22 22 22 25 27 26 23 23 27 28 19 20 20 20 20 23 22 20 17 19 19 12 12 13 17 19 16 9 5 7 7 4 2 6 12 18 20 21 19 18 24
29 28 30 27 21 13 22 27 21 20 25 29 30 27 25 26 26 25 17 20 18 18 18 22 20 18 14 17 14 14 12 12 12 17 18 13 6 7 7 5 2 8 14 18 18 22 19 23 23
33 31 30 25 22 21 21 22 21 26 31 28 25 23 23 25 26 27 22 18 17 16 16 20 18 15 13 16 12 14 14 15 14 14 16 19 4 7 7 7 6 10 15 18 20 20 23 24 26
33 33 29 28 22 22 22 23 24 29 23 21 22 20 15 23 22 25 22 17 17 15 15 17 16 14 11 13 14 17 17 16 14 13 13 12 7 8 8 9 8 10 16 18 20 22 25 23 21
34 29 27 23 21 21 19 20 24 22 22 15 14 16 19 22 22 21 18 18 16 14 15 15 14 13 9 10 14 16 18 18 12 13 11 8 11 6 8 9 12 13 16 18 19 21 19 21 30
33 25 24 20 23 22 21 21 26 19 23 16 5 9 19 19 16 17 18 16 14 13 15 14 13 10 7 8 13 19 19 14 19 11 7 4 12 3 10 9 14 17 16 19 18 14 12 14 17
29 24 19 19 21 18 21 23 26 24 8 2 7 10 14 17 18 22 20 14 12 12 14 13 12 8 7 9 11 16 15 17 15 7 5 6 6 4 11 13 17 17 16 16 14 15 16 22 20
29 22 18 13 15 12 23 24 28 14 14 8 9 6 10 15 22 19 14 11 10 11 12 12 10 6 7 9 11 14 14 21 14 14 11 7 8 4 14 14 16 18 17 17 14 12 15 18 21
33 28 20 11 11 17 27 24 8 6 7 7 7 7 10 18 21 16 10 10 9 11 10 12 7 5 7 8 9 12 13 13 15 13 15 12 9 8 14 14 17 18 19 19 17 14 17 17 22
31 38 29 25 22 17 12 14 14 13 6 8 8 9 12 18 17 10 10 9 11 8 8 9 6 6 6 6 8 10 9 8 11 13 13 9 6 10 11 13 15 18 19 19 19 19 17 19 21
34 31 26 27 15 13 14 18 8 13 5 10 8 6 8 12 9 10 7 10 10 7 7 7 4 5 7 5 6 9 7 7 9 12 16 8 7 10 11 12 14 17 19 19 18 19 21 19 18
36 34 31 24 25 11 9 12 13 12 11 7 6 8 3 6 10 8 9 10 8 5 5 5 3 4 4 4 5 6 5 5 9 14 18 10 9 13 12 14 15 15 19 19 21 21 20 18 15
35 38 30 23 21 18 16 5 11 11 7 6 13 6 1 4 11 9 10 8 7 4 3 2 2 3 2 2 4 4 4 4 7 12 16 18 8 10 12 19 18 17 18 20 19 19 18 17 15
Wind_Direction
300 318 324 337 269 243 267 16 295 313 27 30 306 311 299 305 318 308 283 293 293 290 295 291 295 297 297 298 299 299 300 298 295 292 295 293 288 282 281 280 275 268 258 253 251 249 242 241 236
284 323 43 306 255 280 276 284 302 318 319 321 313 301 305 318 288 342 287 277 292 296 295 293 297 308 305 303 304 301 298 294 296 298 295 291 287 280 272 274 275 268 259 251 248 245 243 238 237
296 5 289 262 260 269 326 303 314 312 321 303 299 287 278 249 266 264 268 277 293 297 307 300 312 313 305 304 303 300 298 297 297 295 294 290 287 283 281 274 267 267 263 259 250 247 242 238 236
290 8 307 257 270 293 304 304 313 321 316 294 292 294 298 285 284 292 298 302 311 320 287 300 312 313 307 306 304 302 299 298 296 291 286 285 285 281 276 273 266 259 263 261 256 249 244 239 233
283 232 260 270 276 314 294 300 303 308 311 312 255 287 294 272 288 296 305 305 315 314 305 305 306 306 308 306 306 303 299 296 290 287 287 284 280 278 276 270 267 259 254 256 255 252 247 241 236
241 253 267 275 308 270 290 287 289 310 303 298 296 274 288 283 291 295 299 311 322 329 319 309 313 315 312 312 308 303 300 298 296 294 288 284 284 282 277 272 267 260 252 248 251 249 246 239 235
229 247 262 276 292 295 301 309 286 298 286 289 269 307 298 289 283 295 307 308 317 321 336 336 325 321 314 311 309 307 304 299 297 292 290 290 288 283 279 271 262 257 250 243 246 245 246 237 229
240 255 268 272 277 287 298 299 288 296 272 279 288 276 276 266 284 294 303 309 327 332 341 340 331 332 324 320 317 314 303 298 298 293 292 289 283 280 279 271 262 254 246 240 242 243 245 234 224
246 254 259 268 282 293 289 284 294 299 271 278 265 255 252 278 303 301 298 312 320 309 322 333 333 326 321 317 312 314 308 304 297 298 295 291 288 283 279 273 262 250 243 236 237 240 242 234 222
236 245 253 268 280 291 288 289 286 289 276 273 268 265 288 287 305 302 296 311 316 292 315 320 326 326 324 315 312 313 310 313 302 297 294 294 289 284 279 278 270 256 240 233 234 235 237 230 218
242 246 258 266 277 280 277 278 283 283 276 274 266 281 272 280 297 297 287 276 261 294 307 313 326 326 321 318 317 314 310 310 299 299 300 294 290 282 279 278 260 254 242 231 231 231 231 224 212
250 254 260 265 268 275 275 273 275 273 275 270 276 266 262 275 286 285 294 267 281 300 308 314 324 326 325 325 325 320 313 311 302 302 294 293 289 284 287 277 265 252 241 231 228 229 224 214 210
253 258 260 263 267 268 271 267 273 269 265 275 268 264 252 256 273 282 282 272 292 299 302 311 323 326 328 328 331 326 313 315 308 308 302 299 300 285 278 275 268 259 239 227 222 222 218 213 208
257 260 263 266 261 269 267 265 267 266 256 269 262 266 266 267 269 278 276 284 290 293 297 311 324 329 331 332 334 328 330 320 318 311 311 306 303 273 277 277 272 254 241 223 215 213 214 211 206
256 260 261 259 258 262 268 262 256 265 260 269 271 269 270 263 271 270 276 284 292 293 298 313 322 331 333 328 338 337 336 329 318 322 325 303 290 255 270 285 277 253 237 219 207 204 201 202 207
251 254 258 259 258 260 250 254 259 263 261 269 264 272 279 276 258 252 267 283 290 290 301 316 325 331 334 327 328 331 340 339 333 345 324 314 256 235 262 290 290 239 214 211 195 199 200 204 184
246 252 251 263 253 256 247 246 253 263 270 266 260 272 275 264 263 262 270 286 290 291 297 316 324 333 329 323 336 349 340 356 354 351 338 321 222 236 244 274 290 217 190 191 180 191 192 191 181
235 241 244 252 259 267 236 251 256 258 271 269 268 269 276 261 257 273 268 286 290 291 296 315 326 333 332 327 318 324 332 335 344 2 358 342 243 229 228 232 249 190 176 168 179 188 198 188 182
240 248 247 259 267 257 245 252 258 266 275 275 280 277 274 261 257 271 273 277 291 288 293 316 328 333 336 332 340 351 345 342 350 352 8 355 263 223 227 211 199 181 171 167 171 182 184 177 174
238 247 255 264 270 271 271 267 269 277 276 276 279 274 271 250 248 274 275 273 287 282 290 316 325 333 333 341 357 4 346 338 334 345 359 1 278 214 209 201 199 169 165 172 170 182 173 169 176
234 241 250 259 267 264 271 270 268 279 286 276 273 270 262 237 257 279 278 276 279 277 295 311 323 328 329 343 344 355 340 336 330 330 345 349 343 217 208 198 191 174 165 159 160 167 170 187 168
233 235 243 253 265 268 268 288 278 288 281 272 262 264 240 248 262 280 284 277 270 272 295 306 319 321 326 328 351 352 341 337 343 333 339 351 350 185 182 186 181 172 164 161 165 177 182 184 192
233 237 243 246 251 261 267 270 277 286 282 260 278 275 249 238 267 282 292 278 260 272 294 302 311 314 325 309 337 349 347 344 333 340 335 18 24 173 178 175 177 180 170 166 171 173 170 183 160
229 235 242 247 254 251 255 260 273 271 293 256 288 281 231 237 275 282 286 265 254 274 288 297 304 308 314 305 332 347 5 12 11 23 54 29 24 62 171 172 176 176 170 167 170 168 169 167 170
219 220 225 228 238 252 256 248 251 269 280 282 274 271 245 256 277 284 286 242 264 276 286 294 299 300 304 308 332 346 3 7 23 44 31 16 14 70 158 159 159 168 161 160 163 161 163 166 166
208 211 218 226 223 245 243 242 247 195 191 236 251 241 237 262 278 287 232 243 275 274 283 292 305 294 303 307 334 341 6 11 24 34 42 28 42 94 150 157 161 163 166 162 162 164 169 168 166
208 213 219 243 249 283 278 231 218 216 213 226 223 224 241 264 280 261 222 258 274 271 287 288 298 294 295 310 327 338 355 5 18 26 28 62 61 86 118 135 150 162 161 160 165 164 158 156 161
213 209 210 230 244 266 276 274 241 159 199 173 199 215 270 289 254 208 251 281 260 269 288 295 288 286 277 305 321 332 347 9 26 30 23 56 97 106 111 126 145 151 155 158 157 155 151 157 162
207 219 207 225 226 226 243 260 264 170 174 179 220 207 282 268 212 243 281 270 244 259 299 299 285 275 283 289 309 324 346 359 32 31 21 75 104 116 109 121 140 146 153 152 146 146 155 160 166
212 213 203 214 221 244 246 248 154 152 180 191 166 197 13 261 224 260 286 245 233 232 309 333 322 261 295 291 296 318 337 352 37 39 33 81 93 123 114 128 114 123 137 146 146 145 149 153 167
Height
3167 3168 3170 3169 3175 3168 3161 3164 3163 3162 3160 3159 3161 3163 3164 3163 3160 3163 3158 3156 3156 3150 3149 3149 3148 3146 3143 3141 3138 3136 3133 3131 3129 3128 3126 3125 3125 3125 3125 3124 3124 3125 3127 3128 3129 3130 3133 3136 3138
3167 3170 3170 3172 3173 3164 3160 3163 3162 3162 3160 3160 3162 3161 3163 3163 3159 3159 3156 3156 3153 3149 3147 3145 3145 3142 3139 3136 3133 3131 3129 3127 3125 3122 3121 3120 3119 3119 3119 3118 3118 3119 3119 3121 3123 3124 3127 3131 3133
3168 3169 3172 3172 3167 3162 3160 3163 3161 3161 3159 3159 3161 3159 3159 3157 3156 3158 3155 3154 3150 3148 3142 3139 3137 3138 3134 3131 3129 3127 3124 3121 3119 3117 3115 3113 3112 3111 3111 3112 3113 3113 3114 3115 3116 3118 3121 3124 3128
3168 3170 3171 3169 3163 3162 3161 3159 3161 3160 3160 3157 3157 3160 3157 3156 3152 3151 3151 3150 3147 3144 3140 3136 3134 3132 3129 3126 3125 3122 3119 3116 3113 3112 3110 3108 3106 3106 3105 3105 3106 3108 3108 3109 3110 3112 3114 3118 3122
3167 3171 3172 3167 3163 3161 3163 3160 3158 3159 3159 3158 3155 3157 3155 3152 3150 3149 3149 3148 3145 3142 3138 3134 3132 3128 3125 3122 3120 3117 3114 3111 3109 3107 3105 3102 3102 3100 3098 3099 3099 3101 3103 3104 3105 3106 3109 3112 3116
3167 3171 3170 3164 3158 3158 3158 3158 3158 3157 3158 3157 3155 3154 3152 3149 3147 3147 3145 3144 3141 3138 3135 3130 3126 3124 3121 3118 3114 3111 3108 3104 3102 3099 3098 3096 3094 3092 3092 3092 3092 3094 3096 3098 3099 3101 3103 3106 3110
3165 3169 3167 3164 3161 3158 3158 3155 3156 3155 3155 3155 3152 3152 3153 3145 3144 3143 3141 3140 3138 3135 3131 3127 3122 3119 3116 3113 3110 3107 3101 3098 3096 3094 3091 3088 3086 3086 3084 3084 3085 3086 3089 3092 3094 3096 3097 3101 3105
3164 3167 3165 3163 3159 3156 3155 3155 3154 3153 3153 3151 3150 3150 3152 3145 3142 3141 3139 3135 3133 3128 3124 3121 3118 3115 3109 3103 3101 3100 3096 3093 3091 3088 3085 3083 3081 3080 3078 3077 3078 3080 3082 3086 3088 3091 3093 3096 3101
3165 3164 3159 3158 3156 3154 3154 3153 3151 3151 3147 3149 3148 3146 3145 3142 3141 3138 3136 3133 3129 3127 3122 3119 3116 3112 3109 3104 3096 3092 3090 3089 3085 3082 3080 3077 3075 3074 3072 3073 3072 3073 3076 3080 3083 3086 3088 3093 3098
3160 3158 3154 3157 3154 3152 3151 3150 3149 3149 3146 3144 3142 3140 3140 3138 3137 3135 3132 3129 3127 3124 3121 3118 3115 3110 3105 3100 3094 3089 3084 3082 3078 3077 3075 3072 3070 3069 3068 3068 3069 3069 3070 3074 3078 3081 3085 3089 3093
3154 3151 3153 3152 3152 3150 3148 3147 3146 3144 3143 3142 3141 3141 3134 3135 3134 3132 3131 3130 3126 3122 3119 3116 3110 3106 3102 3095 3090 3085 3080 3078 3075 3073 3071 3068 3066 3065 3065 3064 3064 3065 3066 3069 3073 3077 3082 3086 3090
3151 3148 3148 3148 3148 3146 3144 3143 3143 3142 3141 3140 3138 3136 3133 3129 3129 3128 3128 3126 3122 3120 3116 3112 3106 3101 3096 3091 3085 3080 3075 3073 3073 3070 3068 3065 3063 3061 3060 3060 3060 3061 3062 3065 3069 3074 3079 3083 3088
3144 3143 3143 3144 3142 3141 3139 3138 3138 3137 3137 3137 3135 3133 3130 3128 3125 3124 3123 3121 3118 3116 3112 3108 3104 3098 3092 3087 3082 3077 3074 3071 3068 3066 3063 3061 3059 3057 3057 3057 3056 3056 3058 3061 3066 3071 3076 3080 3084
3140 3139 3138 3138 3137 3137 3135 3134 3134 3133 3133 3132 3131 3130 3128 3125 3122 3119 3118 3117 3115 3113 3109 3105 3100 3095 3089 3084 3079 3076 3072 3068 3065 3062 3058 3056 3054 3053 3053 3053 3052 3052 3053 3057 3063 3069 3073 3077 3081
3134 3133 3132 3131 3132 3131 3131 3128 3128 3130 3129 3130 3127 3126 3125 3123 3119 3115 3111 3113 3112 3108 3105 3102 3097 3092 3087 3082 3077 3074 3070 3067 3064 3060 3056 3053 3050 3050 3051 3050 3048 3048 3049 3053 3058 3066 3070 3074 3079
3128 3128 3124 3124 3126 3124 3125 3121 3125 3126 3125 3124 3123 3122 3120 3117 3117 3113 3108 3109 3108 3104 3101 3098 3094 3088 3083 3080 3075 3073 3068 3065 3062 3058 3053 3049 3047 3048 3048 3047 3045 3045 3047 3050 3055 3063 3069 3073 3078
3121 3119 3119 3118 3118 3116 3116 3116 3120 3121 3121 3119 3118 3117 3116 3115 3111 3108 3106 3105 3104 3101 3098 3095 3091 3086 3082 3078 3075 3069 3066 3063 3060 3055 3051 3047 3045 3046 3047 3046 3045 3045 3046 3050 3055 3063 3069 3074 3079
3112 3112 3113 3112 3111 3110 3110 3112 3114 3114 3114 3114 3112 3111 3110 3108 3104 3103 3102 3101 3100 3098 3096 3093 3089 3085 3081 3077 3073 3068 3065 3063 3060 3054 3050 3046 3045 3045 3046 3046 3045 3045 3047 3051 3056 3062 3068 3073 3079
3110 3108 3106 3105 3105 3109 3108 3107 3108 3110 3109 3108 3107 3106 3105 3102 3099 3099 3099 3097 3096 3094 3093 3090 3086 3083 3080 3077 3072 3067 3065 3062 3059 3054 3050 3046 3045 3045 3046 3046 3045 3045 3048 3052 3058 3063 3067 3072 3077
3105 3105 3103 3102 3102 3103 3102 3101 3103 3104 3102 3101 3100 3100 3100 3096 3094 3096 3095 3094 3092 3091 3090 3087 3085 3082 3079 3076 3072 3068 3065 3062 3058 3055 3051 3047 3044 3044 3045 3046 3047 3047 3050 3053 3057 3062 3067 3071 3076
3099 3100 3101 3100 3100 3100 3099 3097 3098 3097 3096 3096 3096 3094 3094 3092 3093 3092 3091 3090 3088 3088 3087 3085 3083 3080 3079 3076 3072 3067 3065 3061 3058 3054 3051 3047 3045 3044 3045 3047 3048 3049 3052 3055 3059 3063 3068 3071 3075
3091 3095 3096 3097 3098 3097 3097 3090 3093 3093 3091 3089 3090 3090 3089 3088 3090 3088 3087 3087 3086 3085 3085 3083 3081 3079 3078 3076 3072 3069 3065 3061 3057 3054 3050 3048 3046 3044 3045 3047 3050 3051 3055 3058 3062 3065 3068 3073 3076
3086 3090 3091 3092 3094 3094 3095 3093 3088 3088 3085 3085 3086 3086 3085 3084 3086 3085 3084 3084 3083 3083 3082 3082 3080 3078 3077 3075 3073 3069 3065 3061 3056 3053 3051 3049 3046 3045 3047 3049 3051 3053 3057 3060 3065 3069 3069 3075 3077
3083 3085 3087 3090 3090 3087 3089 3090 3085 3083 3082 3082 3084 3083 3082 3082 3083 3082 3081 3081 3081 3081 3081 3080 3078 3077 3076 3075 3074 3071 3066 3062 3056 3054 3052 3050 3048 3047 3047 3050 3052 3055 3058 3062 3065 3070 3075 3079 3080
3076 3079 3083 3086 3085 3081 3083 3082 3077 3078 3079 3080 3082 3082 3079 3080 3079 3079 3079 3079 3079 3080 3079 3078 3077 3077 3075 3075 3073 3071 3068 3063 3060 3057 3054 3052 3050 3048 3049 3052 3054 3057 3061 3063 3067 3070 3073 3078 3083
3067 3075 3075 3079 3079 3075 3069 3071 3073 3074 3075 3078 3079 3081 3079 3078 3077 3077 3077 3077 3078 3078 3078 3077 3076 3076 3075 3076 3073 3072 3070 3066 3063 3061 3058 3056 3053 3051 3052 3054 3057 3060 3062 3067 3071 3074 3076 3079 3084
3062 3066 3073 3073 3071 3068 3067 3069 3069 3068 3071 3075 3077 3077 3076 3076 3075 3075 3076 3077 3077 3077 3077 3076 3076 3075 3075 3076 3074 3073 3071 3069 3067 3065 3062 3059 3057 3056 3055 3057 3058 3061 3066 3070 3073 3076 3078 3082 3087
3055 3064 3069 3070 3070 3071 3067 3065 3064 3066 3070 3072 3075 3076 3075 3074 3074 3075 3076 3076 3076 3076 3076 3075 3076 3075 3075 3076 3074 3073 3072 3071 3070 3067 3065 3061 3060 3059 3060 3060 3062 3064 3067 3072 3075 3079 3082 3086 3090
3050 3053 3058 3065 3065 3064 3067 3063 3060 3061 3068 3070 3072 3074 3074 3073 3074 3075 3075 3074 3075 3076 3076 3075 3075 3075 3076 3076 3075 3074 3074 3073 3072 3070 3068 3063 3062 3063 3064 3064 3066 3069 3071 3074 3077 3082 3086 3089 3093
3044 3048 3052 3057 3060 3059 3059 3061 3059 3063 3067 3070 3069 3072 3072 3073 3073 3074 3074 3073 3074 3075 3075 3075 3075 3075 3076 3075 3075 3075 3075 3075 3076 3074 3072 3070 3069 3068 3068 3070 3072 3074 3077 3080 3082 3086 3089 3093 3096